CAPE
17 11 21 7 0 0 0 0 0 0 1 0 0 0 0 0 0 0 0 0 0 0 0 0 0 0 0 3 0 0 0 0 0 0 0 0 0 0 0 0 0 0 0 0 0 0 0 7 0 0 0 0 0 0
22 4 13 16 0 0 0 0 4 9 2 5 0 0 0 0 0 0 0 0 0 0 0 0 0 0 0 0 1 10 1 0 0 0 0 2 0 0 0 0 0 0 4 2 0 3 23 12 0 0 0 0 0 0
18 16 10 5 0 0 0 0 13 3 3 7 0 0 0 0 0 0 0 0 0 0 0 0 0 0 0 0 0 1 1 0 0 0 0 0 3 0 0 0 0 3 0 0 0 0 0 0 0 0 0 0 0 0
14 5 15 14 0 0 1 23 12 3 2 0 0 0 0 0 0 0 0 2 0 0 0 0 0 0 0 0 0 0 0 0 0 0 0 0 0 0 0 0 0 0 0 0 0 2 0 0 0 0 0 0 0 0
0 16 16 12 0 0 6 24 8 0 2 3 1 0 0 0 0 2 0 0 0 0 0 0 0 0 0 0 0 0 0 0 0 0 0 0 0 0 0 0 0 0 0 0 0 0 0 0 0 0 0 0 0 0
0 14 12 11 0 0 19 23 6 0 0 0 1 0 0 0 0 0 1 0 0 0 0 0 1 0 0 0 0 0 0 0 0 0 0 0 0 0 0 0 0 0 0 1 0 0 0 0 0 0 0 0 0 0
0 12 12 1 0 0 21 14 2 0 1 5 1 0 0 1 3 0 0 0 0 0 0 0 0 5 5 0 1 0 0 0 0 0 0 0 0 0 0 0 0 0 0 1 0 0 0 0 0 0 0 0 0 0
0 21 7 1 0 15 15 4 2 0 1 1 0 0 0 0 0 0 0 0 0 0 0 0 5 1 1 3 4 9 0 0 0 0 0 0 0 0 0 0 0 0 0 0 0 0 0 0 0 0 0 0 0 0
6 13 22 7 1 9 9 2 6 1 6 0 0 1 0 21 2 0 0 0 0 0 0 0 0 0 0 2 14 2 6 0 0 0 0 0 0 0 0 0 0 3 0 0 0 0 0 0 0 0 0 0 0 0
9 17 17 3 17 13 9 8 4 0 6 0 0 0 3 15 0 0 0 0 0 0 0 0 6 0 0 0 2 0 6 3 0 0 4 2 0 0 0 0 5 0 0 0 0 0 0 0 0 0 0 0 0 0
16 32 3 0 22 15 17 11 9 9 0 0 2 1 0 1 9 1 0 0 0 0 0 0 2 0 0 2 0 10 1 6 0 6 3 2 0 0 0 0 0 0 0 0 0 0 0 0 0 0 0 0 0 0
27 26 0 0 0 3 4 19 9 3 3 1 1 0 1 4 0 0 0 0 0 0 0 0 0 4 8 18 0 0 0 0 0 0 2 0 0 0 0 0 0 0 0 0 0 0 0 0 0 0 0 0 0 0
23 13 4 0 0 1 16 28 25 8 10 19 9 1 1 3 0 0 0 3 0 0 0 0 12 0 1 1 0 0 0 0 0 0 0 1 0 0 0 0 0 0 0 0 0 0 0 0 0 0 0 0 0 0
12 1 3 5 0 1 23 35 19 34 52 0 0 1 0 0 0 0 0 0 0 0 0 0 0 0 1 0 0 0 0 0 1 0 0 0 0 0 0 0 0 0 0 0 0 0 0 0 0 0 0 0 0 0
0 0 1 8 5 1 9 0 3 23 23 0 0 0 0 0 0 0 0 0 0 1 0 6 0 0 0 0 0 1 2 0 0 0 0 0 0 0 0 0 0 0 0 0 0 0 0 0 0 0 0 0 0 0
0 0 0 0 5 2 1 1 0 10 13 28 14 0 0 0 0 0 0 0 3 0 2 6 6 0 1 0 0 0 0 0 0 0 0 0 0 0 0 0 0 1 0 0 0 0 0 0 0 0 0 0 0 0
0 3 0 0 2 18 13 0 0 2 0 0 0 8 11 5 0 0 5 0 0 0 9 13 1 0 15 0 0 0 0 0 0 0 0 0 0 0 0 0 0 0 0 0 0 0 0 0 0 0 0 0 0 0
2 0 0 1 7 24 1 0 1 0 0 0 31 7 10 17 12 3 13 15 0 1 2 0 3 0 1 0 0 0 0 0 0 0 0 0 0 0 0 0 0 0 0 0 0 0 0 0 0 0 0 0 0 0
0 0 0 19 0 0 1 1 0 1 1 10 0 0 0 0 0 0 0 0 10 10 0 0 0 0 0 1 0 0 0 0 0 0 0 0 0 0 0 0 0 0 0 0 0 0 0 0 0 0 0 0 0 0
0 0 9 1 4 0 0 0 0 0 0 0 0 0 0 0 0 0 0 0 3 0 0 0 0 0 0 0 0 0 0 0 0 0 0 0 0 0 0 0 0 0 0 1 0 0 0 0 0 0 0 0 0 0
0 7 0 1 0 1 0 0 0 0 0 0 0 0 0 0 0 0 0 0 0 0 0 0 0 0 0 0 0 0 0 0 0 0 0 0 0 0 0 0 0 0 0 0 0 0 0 0 0 0 0 0 0 0
13 4 0 0 0 0 0 0 0 0 0 0 0 0 1 0 0 0 0 0 0 0 0 0 0 0 0 0 0 0 0 0 0 0 0 0 1 2 0 0 0 0 0 0 0 0 0 0 0 0 0 0 0 0
6 2 0 0 0 0 0 0 0 0 0 0 0 0 0 0 0 0 0 0 0 0 0 0 0 0 0 0 0 0 0 0 0 0 0 0 0 0 0 0 0 0 0 0 0 0 0 0 0 0 0 0 0 0
0 0 0 1 0 0 0 0 0 0 0 1 0 0 0 0 0 0 0 0 0 0 0 0 0 2 2 0 0 0 1 0 0 0 0 0 0 0 0 0 0 0 0 0 0 0 0 0 0 0 0 0 0 1
7 0 0 0 0 0 0 0 2 0 0 0 0 0 0 0 0 0 0 0 0 0 0 1 1 0 0 0 1 1 1 1 0 1 1 1 0 0 0 0 0 0 0 0 0 0 0 0 0 0 0 0 0 0
0 0 0 0 0 0 0 0 0 0 0 0 0 0 0 0 1 0 0 0 0 0 0 0 0 1 1 1 1 1 1 1 1 0 0 0 0 0 0 0 0 0 0 0 0 0 1 0 0 0 0 0 0 0
0 0 0 0 0 0 0 0 0 0 0 0 0 0 0 0 0 0 0 0 0 0 0 0 1 2 1 2 1 1 0 0 0 0 0 0 0 0 0 0 0 0 0 0 0 0 0 0 0 0 0 0 0 0
0 0 0 0 0 0 0 0 0 0 0 0 0 0 0 0 0 0 0 0 0 0 2 0 0 0 0 0 0 0 0 0 0 0 0 0 0 0 0 0 0 0 0 0 0 0 0 0 0 0 0 0 0 0
0 0 0 0 0 0 0 0 0 0 0 0 0 0 0 0 0 0 0 0 0 0 0 0 0 0 0 0 0 0 0 0 0 0 0 0 0 0 0 0 0 0 0 0 0 0 0 0 0 0 0 0 0 0
0 0 0 0 0 0 0 0 0 0 0 0 0 0 0 1 0 0 0 0 0 0 0 0 1 0 0 0 0 0 0 0 0 0 0 0 0 0 0 0 0 0 0 0 0 0 0 0 0 0 0 0 0 0
0 0 0 0 0 0 0 0 0 0 0 0 0 0 0 0 0 0 0 0 0 1 1 1 0 0 0 0 0 0 0 0 0 0 0 0 0 0 0 0 0 0 0 0 0 0 1 0 0 0 0 0 0 0
0 0 0 0 0 0 0 0 0 0 0 0 0 0 0 0 0 0 0 1 1 1 1 0 0 0 0 0 0 0 0 0 0 0 0 0 0 0 0 0 0 0 0 0 0 0 0 0 0 0 0 0 0 0
0 0 0 0 0 0 0 0 0 0 0 0 0 0 0 0 0 0 0 0 1 0 0 0 0 0 0 0 0 0 0 0 0 0 0 0 0 0 0 0 0 0 0 0 0 0 0 0 0 0 0 0 0 0
CIN
0 -3 0 -9 0 0 0 0 0 0 -9 -27 0 0 0 0 0 0 -1 0 0 0 0 0 0 0 0 -46 -11 0 0 0 0 0 0 0 0 0 0 0 0 0 0 0 0 0 -3 -50 0 0 0 0 0 0
0 -3 -1 -3 0 0 0 0 -4 -4 -21 -16 0 0 0 0 0 0 0 0 0 0 0 0 0 0 0 0 -60 -29 -10 0 0 0 0 -6 0 0 0 0 0 -4 -23 -17 0 -6 -20 -34 0 0 0 0 0 0
-1 -1 0 -5 0 0 0 0 -1 -3 -5 -21 0 0 0 0 0 0 0 -5 0 0 0 0 0 0 0 0 0 -35 -74 0 0 0 0 0 -11 0 0 0 0 -17 0 0 0 0 0 0 0 0 0 0 0 0
-1 -1 0 -1 0 0 -8 -1 -3 -4 -6 -3 0 0 0 0 0 0 0 -19 0 0 0 0 0 0 0 0 0 0 0 0 0 0 0 0 0 0 0 0 0 0 0 0 0 -4 0 0 0 0 0 0 0 0
0 -2 0 -3 0 0 -16 -2 -3 -3 -21 -36 -26 0 0 0 0 -23 0 0 -3 0 0 0 0 0 0 0 0 0 0 0 0 0 0 0 0 0 0 0 0 0 0 0 -1 0 0 0 0 0 0 0 0 0
0 -1 -1 -4 0 0 -3 -9 -7 0 0 -13 -37 0 0 0 0 0 -6 0 0 0 0 0 -2 0 0 0 0 0 0 0 0 0 0 0 0 0 0 0 0 0 0 -11 0 0 0 0 0 0 0 0 0 0
0 -6 -2 -5 0 0 -15 -15 -7 0 0 -17 -17 0 0 -12 -19 0 0 0 0 0 0 0 0 -3 -3 0 -7 0 0 0 0 0 0 0 0 0 0 0 0 0 0 -47 0 0 0 0 0 0 0 0 0 0
-1 0 -2 -4 0 -32 -19 -24 -17 0 -15 -32 0 0 -24 0 0 -2 0 0 0 0 0 -2 -7 -6 -5 -6 -2 -8 0 0 0 0 0 0 0 0 0 0 0 0 0 0 0 0 0 0 0 0 0 0 0 0
-2 0 -3 -8 -7 -16 -25 -18 -24 -13 -32 -9 0 -25 -33 -21 -15 0 0 0 0 0 0 0 0 0 -1 -8 -13 -11 -6 0 0 0 0 0 0 0 0 0 0 -15 0 0 0 0 0 0 0 0 0 0 0 0
0 -2 -5 -14 -12 -12 -24 -30 -36 -2 -45 0 -7 0 -14 -24 0 -1 0 0 0 0 0 0 -6 0 0 -4 -8 0 -8 -6 0 0 -19 -4 0 0 0 0 -13 0 0 0 0 0 0 0 0 0 0 0 0 0
0 -2 -15 -3 -10 -7 -18 -22 -29 -41 -1 0 -1 0 -2 -14 -13 -1 0 0 0 0 0 0 -5 0 -11 -4 -3 -9 -2 -8 0 -7 -6 -10 0 0 0 0 0 0 0 0 0 0 0 0 0 0 0 0 0 0
0 -3 -23 0 0 -31 -20 -20 -20 -15 -8 -7 -6 -4 -20 -19 0 0 0 -1 0 0 0 0 0 -13 -8 -9 0 0 0 0 -2 -5 -9 0 -1 0 0 0 0 0 0 0 0 0 0 0 0 0 0 0 0 0
0 -7 -22 0 0 0 -13 -13 -8 -19 -21 -17 -17 -7 -2 -3 0 0 0 -1 0 0 0 0 -2 -2 -12 -5 0 0 0 0 0 0 -1 -3 0 0 0 0 0 0 0 0 0 0 0 0 0 0 0 0 0 0
-11 -19 -29 -19 0 0 -13 -15 -30 -33 -18 0 0 0 0 0 0 0 0 0 0 0 0 -1 0 0 -6 0 0 0 0 0 0 0 0 0 0 0 0 0 0 0 0 0 0 0 0 0 0 0 0 0 0 0
-3 0 -29 -8 -1 -1 -30 -17 -85 -60 -23 0 0 0 0 0 0 0 0 0 0 -6 0 -4 -10 0 0 0 -2 -2 0 -2 0 0 0 0 0 0 0 0 0 0 0 0 0 0 0 0 0 0 0 0 0 0
0 0 0 0 -6 -3 0 -22 -14 -61 -32 -25 -13 0 0 0 0 0 0 0 -29 0 -8 -16 -13 0 -8 0 -1 0 0 0 0 0 0 0 0 0 0 0 0 0 0 0 0 0 0 0 0 0 0 0 0 0
0 -6 0 0 -5 -2 0 0 0 -14 -2 -3 -3 -11 -28 -53 0 0 -5 0 0 0 -9 -4 -4 0 -2 -3 0 0 0 0 0 0 0 -1 0 0 0 0 0 0 0 0 0 0 0 0 0 0 0 0 0 0
-7 0 0 0 -4 0 0 0 0 0 0 -2 -3 -11 -19 -37 -19 -15 -16 -12 -11 -5 -9 -1 -8 0 -3 0 0 0 0 0 0 0 0 -1 0 0 0 0 0 0 0 0 0 0 0 0 0 0 0 0 0 0
0 0 0 -2 -1 0 0 0 -1 0 -2 -9 0 0 -39 0 0 0 0 -3 -11 -17 0 0 0 0 -10 -29 0 0 0 0 0 0 0 0 0 0 0 0 0 0 0 0 0 0 0 0 0 0 0 0 0 0
0 0 -3 -14 -13 0 0 0 -1 -1 0 -1 0 0 0 0 0 0 0 0 -26 -1 0 0 0 0 0 0 0 0 0 0 0 0 0 0 0 0 0 0 0 0 0 -1 0 0 0 0 0 0 0 0 0 0
0 -3 0 -29 0 0 0 0 -1 0 0 0 0 0 0 0 0 0 0 0 0 0 -1 0 0 0 0 0 0 0 0 0 0 0 0 0 0 -1 -1 0 0 0 0 0 0 0 0 0 0 0 0 0 0 0
-1 -9 0 0 0 0 0 0 0 -1 0 0 -1 0 0 0 0 0 0 0 0 0 0 0 0 0 0 0 0 0 0 0 0 0 0 0 0 -1 -1 0 0 0 0 0 0 0 0 0 0 0 0 0 0 0
-12 -19 0 0 0 0 0 0 0 -1 0 -1 0 0 0 0 -1 0 0 0 0 0 0 0 0 0 0 -1 -4 0 0 0 0 0 -1 0 0 0 0 0 0 0 0 0 0 0 0 0 0 0 0 0 0 0
0 -5 0 0 0 0 0 0 -1 0 0 -1 0 0 0 0 0 -1 0 0 0 0 0 0 0 0 0 -1 0 0 0 0 0 0 0 0 0 0 0 0 0 0 0 0 0 0 0 0 0 0 0 0 0 0
-8 0 0 0 0 0 0 -1 0 0 0 0 0 0 0 0 0 0 0 0 0 0 0 0 0 0 0 0 0 0 0 0 0 0 0 0 0 0 0 0 0 0 0 0 0 0 0 0 0 0 0 0 0 0
0 0 0 0 0 0 0 0 0 0 0 0 0 0 0 0 0 0 0 0 0 0 0 0 0 0 0 0 0 0 0 0 0 0 0 0 0 0 0 0 0 0 -1 0 0 0 0 0 0 0 -4 0 0 0
0 0 0 0 0 0 0 0 0 0 0 0 0 0 0 0 0 0 0 0 0 0 0 -1 0 0 0 0 0 0 0 0 0 0 0 0 0 0 0 0 0 0 0 0 0 0 0 0 0 0 0 0 -3 0
0 0 0 0 0 0 0 0 0 0 0 0 0 0 0 0 0 0 0 0 0 0 -1 -3 -2 0 0 0 0 0 0 0 0 0 0 0 0 0 0 0 0 -1 0 0 0 0 0 0 0 0 0 0 0 -5
0 0 0 0 0 0 0 0 0 0 0 0 0 0 0 0 0 0 0 0 0 0 0 0 0 0 0 0 0 0 0 0 0 0 0 0 0 0 0 0 0 0 0 0 0 0 0 0 0 0 0 0 0 0
0 0 0 0 0 0 0 0 0 0 0 0 0 0 0 0 0 0 0 -1 0 0 0 0 0 0 0 0 0 0 0 0 0 0 0 0 0 0 0 0 0 0 0 0 0 0 0 0 0 0 0 0 0 0
0 0 0 0 0 0 0 0 0 0 0 0 0 0 0 0 0 0 0 0 0 0 0 0 0 0 0 0 0 0 0 0 0 0 0 0 0 0 -2 -1 0 0 0 0 0 0 0 0 0 -1 -1 -1 0 0
0 0 0 0 0 0 0 0 0 0 0 0 -1 0 0 0 0 0 0 0 0 0 0 0 0 0 0 0 0 0 0 0 0 0 0 0 0 -1 -1 0 0 0 0 0 0 0 0 0 0 0 0 0 0 0
0 0 0 0 0 0 0 0 0 0 -1 0 0 0 0 0 0 0 0 0 0 0 0 0 0 0 0 0 0 0 0 0 0 0 0 0 0 0 0 0 0 0 0 0 0 0 0 0 0 0 0 0 0 0
Wind_Speed
43 39 39 43 41 39 36 38 39 36 33 29 27 25 26 23 20 18 19 15 16 16 14 11 11 14 14 15 14 8 11 14 10 13 13 13 14 14 15 16 17 18 17 19 21 23 22 27 25 28 22 23 21 21
43 39 41 43 40 38 36 37 37 35 32 29 26 24 23 22 20 19 18 16 16 15 15 12 10 10 10 11 12 13 13 11 13 12 14 12 12 14 15 15 16 17 16 17 18 19 16 23 22 19 19 21 21 20
41 38 39 42 39 37 37 36 35 34 31 28 26 24 22 21 21 20 18 18 16 15 14 16 15 12 12 13 13 12 13 14 13 14 13 13 11 15 13 15 15 16 18 16 19 20 19 22 23 24 24 23 20 18
38 35 39 40 37 37 37 35 35 33 30 28 25 23 21 20 19 18 17 19 16 14 17 18 15 15 14 14 12 11 11 14 14 13 13 13 13 16 14 16 16 17 18 16 16 16 18 23 25 25 25 22 19 18
36 32 37 39 37 36 35 34 33 32 31 26 25 23 22 20 19 15 13 15 14 15 18 15 11 14 15 15 14 13 14 15 16 15 15 15 15 17 17 18 18 17 16 19 19 14 16 21 24 21 22 22 20 18
35 33 35 38 36 35 34 33 33 31 30 27 25 22 20 19 18 16 17 16 14 14 14 17 14 13 13 13 12 13 15 16 16 15 15 16 16 17 17 16 14 11 22 19 13 15 17 19 22 20 20 20 20 19
33 35 35 35 35 34 34 33 32 30 28 27 23 21 19 18 18 18 17 15 15 13 14 14 15 14 11 12 13 14 15 16 15 15 16 17 16 18 16 17 15 23 22 12 11 14 18 17 18 18 19 19 20 21
31 29 29 34 33 32 33 32 31 29 28 25 23 19 16 13 13 16 14 13 13 13 13 15 15 15 15 14 15 14 16 17 17 16 16 17 18 14 17 17 16 17 10 11 13 16 14 14 15 17 18 18 19 19
33 31 29 31 32 31 32 32 29 27 27 24 20 17 16 18 19 17 13 11 14 14 17 18 15 17 14 14 13 14 14 16 15 16 17 15 16 16 14 15 18 12 11 10 14 14 14 14 14 14 15 17 16 17
37 29 26 29 31 31 31 31 29 26 25 23 21 20 20 18 8 7 13 16 16 18 18 18 15 15 11 12 14 13 14 15 16 16 14 16 19 19 20 16 16 12 9 10 12 13 13 13 12 12 14 16 15 15
36 30 29 31 31 29 31 31 30 28 25 21 21 21 17 14 14 14 15 16 17 19 18 18 14 10 13 12 12 14 14 16 17 16 17 17 18 17 18 11 11 11 12 14 12 12 12 11 12 14 16 15 14 14
35 27 27 31 33 32 31 31 31 27 24 22 16 14 14 16 16 17 18 17 18 20 15 14 12 9 10 11 13 14 14 15 17 18 16 18 13 12 13 13 14 14 14 15 14 14 14 14 14 15 15 15 15 15
27 30 29 29 32 34 32 32 30 25 20 17 17 18 19 18 21 23 24 21 20 15 12 10 8 10 12 12 12 13 15 15 15 15 16 16 10 11 12 13 15 15 14 14 14 15 16 17 17 15 15 15 15 15
29 27 27 31 33 35 34 33 30 27 22 20 21 24 24 24 24 20 19 16 17 10 6 8 8 10 10 11 12 15 14 13 17 18 16 11 9 11 12 13 14 13 12 13 14 15 16 16 16 16 15 15 15 16
25 23 25 29 32 36 35 27 26 24 22 21 19 25 24 21 20 18 14 12 13 5 6 7 9 11 11 13 13 14 14 16 15 16 12 8 10 12 12 12 11 10 11 12 13 14 15 14 15 15 15 15 15 16
24 24 27 31 32 38 29 25 23 19 20 22 21 22 20 17 17 18 12 10 8 6 6 7 10 12 14 12 13 14 14 16 15 12 10 10 11 11 10 11 8 9 10 12 12 13 14 14 14 15 15 15 15 15
25 26 30 31 32 32 24 24 21 19 19 21 21 21 20 18 16 13 11 8 7 10 10 11 11 13 9 13 14 12 15 13 8 9 11 10 10 10 10 8 9 9 10 11 11 12 12 13 14 14 15 15 16 16
24 27 28 31 34 31 24 20 19 17 21 19 18 17 15 15 13 11 10 9 10 11 12 12 13 13 13 14 15 12 11 9 10 11 11 10 10 9 8 8 9 9 10 10 10 10 11 12 13 14 15 15 15 15
27 28 27 29 33 27 19 18 20 18 19 17 14 13 13 13 10 10 9 10 13 15 14 15 15 16 15 15 11 8 7 9 8 10 11 9 10 8 7 7 8 8 8 9 9 9 10 11 12 13 14 15 15 15
22 24 23 24 28 23 18 17 18 18 20 18 15 13 14 15 15 14 13 14 14 15 17 17 17 15 14 15 13 8 8 7 8 10 12 10 8 7 6 6 6 7 8 8 8 10 11 12 13 13 13 14 15 15
20 23 24 25 25 18 14 18 18 19 19 17 14 16 16 15 15 16 18 18 18 19 19 18 15 14 15 15 13 12 11 10 11 13 9 8 6 5 5 4 6 6 7 6 8 9 10 11 12 14 15 15 16 16
22 20 24 22 20 22 19 16 16 14 15 17 17 17 18 20 21 21 19 20 20 20 18 17 16 17 17 17 16 15 13 12 12 10 7 4 3 3 2 3 3 5 3 4 7 8 9 10 12 13 13 15 15 16
19 21 22 23 17 20 22 19 18 17 17 17 14 16 18 18 17 14 20 21 22 19 18 19 18 20 20 18 16 14 11 9 9 7 4 4 4 3 3 3 3 2 4 6 7 7 8 11 12 13 14 14 15 15
19 21 25 21 16 18 21 23 20 18 17 18 18 17 16 16 14 19 23 23 22 19 21 22 20 18 16 14 13 11 10 8 7 6 4 2 2 2 2 3 1 3 5 5 5 7 9 10 11 12 13 14 15 16
21 25 24 25 21 16 18 18 19 19 19 18 16 16 15 15 19 21 24 23 19 19 18 16 14 13 13 12 10 7 4 3 2 2 2 4 4 3 2 1 3 3 3 3 6 7 8 9 10 11 12 13 14 15
23 23 28 28 23 24 22 21 21 19 17 19 19 17 18 18 20 23 24 20 18 15 13 10 9 10 8 5 4 3 1 2 2 3 2 3 3 4 3 2 1 5 5 3 5 6 8 9 10 11 12 13 13 14
19 23 27 26 24 20 18 17 16 19 21 21 20 19 19 23 26 23 19 17 17 12 6 6 7 6 6 5 2 2 3 3 4 4 1 2 2 3 1 2 3 4 4 4 6 7 9 10 10 11 12 14 14 14
22 19 26 24 21 22 22 21 22 23 22 18 13 20 22 23 22 20 19 18 13 4 4 4 5 4 4 3 3 4 4 5 5 3 1 3 6 6 3 3 4 5 6 7 8 9 9 9 10 11 12 13 14 14
21 19 18 20 21 21 22 23 22 19 20 18 21 23 23 22 21 20 18 12 3 1 0 2 4 4 4 3 3 4 4 4 7 6 4 1 2 5 3 5 6 6 7 8 8 8 8 9 11 12 13 13 14 15
21 21 20 20 22 23 21 21 20 19 19 20 19 20 21 21 21 21 18 6 5 5 5 4 6 7 7 7 5 4 8 8 5 2 4 3 1 5 5 6 7 8 8 8 8 8 9 10 11 12 12 13 13 14
22 21 21 21 22 21 20 18 18 18 19 21 21 23 23 21 21 18 14 9 6 4 6 6 6 6 6 6 6 4 8 15 10 7 5 3 6 7 7 8 8 7 7 7 7 6 7 8 9 10 10 11 12 12
24 26 25 24 23 21 21 21 21 22 22 24 25 23 23 23 23 22 19 11 6 7 8 7 7 6 6 8 12 14 10 5 3 1 5 5 6 6 8 7 6 7 7 7 6 6 7 7 8 9 9 10 10 11
22 20 20 21 21 21 21 21 22 24 25 26 26 26 26 23 25 22 20 20 12 9 9 8 7 7 9 12 12 8 5 2 1 3 5 6 7 7 6 6 5 6 6 6 6 6 6 7 7 8 9 9 10 10
Wind_Direction
211 213 206 206 210 214 218 215 215 217 215 217 217 220 221 219 224 237 248 263 258 255 269 281 279 263 270 273 271 293 301 304 309 311 320 331 333 335 334 337 337 341 345 341 346 341 341 355 358 356 3 9 12 9
208 210 210 208 211 213 214 213 213 212 211 213 213 216 216 218 221 237 245 255 268 257 260 275 287 295 290 293 274 286 298 300 314 313 324 339 342 339 338 336 355 339 354 350 357 353 16 8 6 14 14 4 2 4
206 209 208 205 208 211 211 211 209 208 209 209 210 213 215 218 223 237 247 249 260 258 267 264 263 285 295 298 302 280 300 303 313 320 324 332 341 336 342 345 348 354 357 360 357 0 3 7 9 7 4 2 6 11
205 211 207 204 207 208 207 206 205 205 205 205 207 210 213 216 221 236 244 250 255 258 259 261 275 276 286 287 297 308 299 303 309 322 323 324 330 332 334 338 340 348 351 358 354 3 9 4 2 2 6 10 19 19
205 211 204 203 205 205 205 203 201 202 203 202 205 208 210 214 219 233 250 256 259 254 257 262 279 284 284 280 283 291 296 300 303 305 310 312 320 324 327 329 326 338 344 342 341 4 3 360 360 13 18 21 25 29
204 208 203 202 203 203 202 199 199 200 201 202 203 204 204 212 217 230 241 258 265 260 264 261 279 281 285 282 289 290 293 293 296 304 307 312 316 325 329 330 337 354 339 348 355 8 15 13 12 23 29 31 35 31
206 203 199 199 200 199 199 197 196 197 197 199 198 197 203 216 225 234 245 249 259 265 269 267 269 279 287 281 288 292 300 294 298 301 305 308 315 322 324 318 331 324 333 20 30 23 8 11 17 31 33 37 34 33
202 195 195 196 196 197 195 193 192 194 192 192 192 192 203 209 223 240 253 255 260 262 274 267 272 271 273 275 282 293 292 292 296 301 309 309 315 323 322 332 337 339 358 13 5 2 16 28 32 32 31 33 26 26
195 194 191 192 192 192 189 189 187 186 185 182 178 189 211 228 234 237 246 259 263 266 259 262 261 268 270 277 289 292 298 294 303 301 306 317 316 313 325 337 339 358 358 11 12 18 21 26 30 29 27 21 23 20
192 191 184 187 187 185 184 182 178 173 168 168 186 210 216 222 202 210 250 251 257 264 265 261 269 270 272 275 284 293 298 297 300 307 319 315 311 312 312 318 342 6 28 30 17 7 12 14 22 24 14 16 27 28
187 185 185 186 185 181 180 178 175 170 176 197 210 217 207 200 235 250 246 249 256 258 260 257 266 266 274 279 285 298 297 300 298 306 310 315 316 332 343 4 360 7 13 5 12 14 13 24 24 20 10 16 27 33
187 184 184 186 185 184 181 178 174 189 198 207 194 186 204 230 245 248 243 251 257 256 260 248 258 274 282 292 297 298 300 303 302 310 313 313 330 349 357 359 356 358 2 2 9 20 21 26 25 17 20 23 28 32
186 187 186 185 185 185 183 179 188 190 173 192 207 221 226 238 239 240 238 247 253 258 255 239 251 274 280 294 303 306 301 304 318 313 315 319 344 356 357 358 355 356 5 17 20 22 24 25 22 25 30 31 39 43
181 182 184 186 186 185 184 185 193 191 204 215 218 218 231 237 242 249 243 246 253 260 231 215 258 279 289 290 305 298 307 315 306 306 311 325 336 344 347 353 354 0 10 18 20 21 22 23 23 29 35 43 49 50
174 175 180 186 186 185 184 189 194 202 216 219 226 227 234 243 239 241 249 246 254 221 195 214 265 289 287 295 298 304 303 304 310 311 325 336 338 338 341 348 1 15 18 16 15 17 30 29 28 33 41 47 52 53
168 175 190 186 186 185 187 190 201 217 228 227 234 231 231 230 235 243 238 240 230 193 190 265 276 282 284 293 294 293 298 302 312 322 336 344 345 351 356 358 22 19 19 14 19 32 37 32 36 44 47 50 52 51
181 192 185 184 182 183 189 196 206 221 228 230 232 235 229 233 233 245 238 227 204 187 233 272 274 279 298 293 292 300 300 314 332 338 337 341 345 346 354 13 17 20 16 21 31 39 31 38 45 50 51 50 47 47
190 181 180 180 180 182 194 203 214 225 224 227 228 229 233 227 229 243 246 226 219 223 261 274 286 281 290 292 299 306 313 323 326 333 340 343 346 346 351 4 8 16 19 27 33 39 42 43 48 51 52 48 45 51
182 180 180 182 185 188 203 218 221 223 223 227 225 233 231 232 245 250 247 254 253 256 270 277 284 282 289 302 312 323 332 328 335 336 337 343 350 357 357 3 7 11 24 33 45 39 46 49 55 55 54 55 54 55
172 174 178 182 187 203 216 224 226 223 222 228 231 235 240 241 249 255 257 262 263 263 267 273 278 290 293 298 307 315 323 333 336 334 333 334 340 353 3 8 11 39 41 46 32 48 54 54 48 45 61 56 44 44
169 183 187 191 200 214 227 227 230 229 227 233 233 242 249 252 254 257 258 264 261 265 267 274 280 291 299 303 310 313 312 314 314 317 324 327 328 333 343 19 42 43 55 47 62 63 56 49 41 43 43 38 39 42
185 187 191 197 209 219 232 237 230 230 238 237 244 251 254 256 258 258 265 261 265 268 275 278 283 289 294 300 304 306 305 308 310 318 329 340 306 314 326 30 47 70 36 49 68 64 54 41 42 38 42 45 46 47
186 193 196 203 224 227 225 230 236 238 239 239 253 256 256 259 261 264 263 266 269 277 281 285 288 292 294 301 305 304 303 309 307 313 322 310 314 327 7 24 68 60 49 61 66 59 39 40 45 52 42 44 43 45
201 204 206 215 227 231 229 231 238 242 248 247 252 256 256 263 267 265 268 273 278 284 283 283 288 291 294 295 296 297 298 302 302 302 299 280 288 330 319 285 34 56 63 49 17 21 39 44 45 47 45 45 45 45
207 211 218 221 228 229 225 226 232 241 246 245 247 253 266 273 270 271 275 282 285 285 286 284 284 286 287 292 297 304 311 298 253 246 255 249 232 240 255 14 31 16 313 25 50 50 44 43 50 50 50 51 49 46
215 223 219 217 221 223 226 230 233 236 240 245 251 263 271 272 271 275 282 292 293 288 281 274 277 283 288 289 287 282 277 124 148 227 226 135 132 126 122 113 359 308 316 24 64 70 61 58 55 51 49 51 50 48
228 226 222 226 230 235 241 248 246 246 245 251 260 265 266 264 264 279 294 300 302 303 286 278 274 275 263 242 146 120 115 122 122 115 169 232 255 265 267 84 53 353 21 62 82 81 78 67 57 56 51 43 47 50
233 233 217 222 231 239 242 243 244 246 252 264 267 260 264 268 278 286 292 296 305 309 286 282 265 239 208 157 158 147 132 115 105 96 67 279 269 281 311 338 9 38 44 64 79 82 70 57 61 59 55 54 51 51
231 229 229 228 233 240 244 247 251 262 266 263 260 262 270 274 283 287 286 295 336 72 192 220 220 191 171 177 172 157 163 152 130 125 120 75 333 301 346 48 53 47 65 65 58 55 60 63 65 60 57 52 48 48
234 232 237 240 241 245 255 262 265 272 276 268 271 273 275 279 280 277 274 293 265 252 238 170 152 164 164 159 170 214 248 247 237 145 113 110 46 87 76 67 77 80 74 71 62 52 55 54 49 47 50 50 48 47
235 240 244 247 250 259 267 273 276 276 275 271 277 271 271 271 272 276 274 267 248 209 187 182 201 197 174 170 170 193 246 250 256 267 287 66 90 87 86 85 83 78 68 69 58 47 46 44 48 50 49 46 45 48
243 243 244 252 257 260 263 269 275 275 273 270 266 266 262 261 260 257 258 256 214 200 212 205 183 211 227 232 240 244 249 254 258 94 96 91 87 85 91 79 68 71 72 66 53 48 46 39 40 42 43 46 48 51
249 255 262 265 269 271 273 278 277 268 262 258 259 254 253 259 256 255 255 251 239 200 195 213 227 226 230 237 241 245 249 264 54 75 87 93 92 87 77 71 70 72 72 66 57 50 41 38 37 40 43 49 48 44